DW2489 Weather Reports


Display with metric or nautical units.
time (UTC)temp
F
wind
direction
speed
MPH
gust
MPH
rain 1hr
in
rain 24hr
in
rain mn
in
humidity
%
barometer
mb
20260508142742 54 272 6.0 12.0 0.00 0.00 0.00 1010.2
20260508142242 54 270 5.0 10.0 0.00 0.00 0.00 1010.2
20260508141739 54 209 3.0 12.0 0.00 0.00 0.00 1010.2
20260508141238 54 234 3.0 12.0 0.00 0.00 0.00 1010.2
20260508140704 54 326 4.0 12.0 0.00 0.00 0.00 1010.5
20260508140203 54 355 2.0 10.0 0.00 0.00 0.00 1010.5
20260508135558 54 261 2.0 15.0 0.00 0.00 0.00 1010.2
20260508135057 53 279 4.0 15.0 0.00 0.00 0.00 1010.5
20260508134552 53 266 4.0 10.0 0.00 0.00 0.00 1010.5
20260508134051 53 251 5.0 12.0 0.00 0.00 0.00 1010.5
20260508133550 53 236 4.0 12.0 0.00 0.00 0.00 1010.5
20260508133017 52 297 2.0 10.0 0.00 0.00 0.00 1010.5
20260508132515 52 305 4.0 16.0 0.00 0.00 0.00 1010.5
20260508132014 52 258 7.0 16.0 0.00 0.00 0.00 1010.5
20260508131441 52 278 6.0 13.0 0.00 0.00 0.00 1010.5
20260508130940 52 266 4.0 15.0 0.00 0.00 0.00 1010.5
20260508130405 51 299 2.0 15.0 0.00 0.00 0.00 1010.5
20260508125904 51 262 6.0 15.0 0.00 0.00 0.00 1010.5
20260508125403 50 252 4.0 9.0 0.00 0.00 0.00 1010.5
20260508124900 49 297 1.0 12.0 0.00 0.00 0.00 1010.5
20260508124357 49 273 5.0 12.0 0.00 0.00 0.00 1010.5
20260508123856 48 265 4.0 12.0 0.00 0.00 0.00 1010.5
20260508123323 47 255 6.0 13.0 0.00 0.00 0.00 1010.5
20260508122821 47 254 3.0 13.0 0.00 0.00 0.00 1010.5
20260508122320 46 258 4.0 13.0 0.00 0.00 0.00 1010.5
20260508121819 46 286 2.0 9.0 0.00 0.00 0.00 1010.5
20260508121317 45 252 3.0 9.0 0.00 0.00 0.00 1010.5
20260508120815 45 288 4.0 9.0 0.00 0.00 0.00 1010.8
20260508120313 45 254 4.0 9.0 0.00 0.00 0.00 1010.8
20260508115740 45 271 4.0 9.0 0.00 0.00 0.00 1010.5
20260508115238 45 267 3.0 9.0 0.00 0.00 0.00 1010.5
20260508114737 45 288 2.0 9.0 0.00 0.00 0.00 1010.5
20260508114205 44 263 2.0 9.0 0.00 0.00 0.00 1010.5
20260508113704 44 189 2.0 6.0 0.00 0.00 0.00 1010.5
20260508113201 44 278 1.0 7.0 0.00 0.00 0.00 1010.8
20260508112659 44 272 2.0 7.0 0.00 0.00 0.00 1010.8
20260508112158 44 247 3.0 7.0 0.00 0.00 0.00 1010.5
20260508111657 44 274 4.0 10.0 0.00 0.00 0.00 1010.5
20260508111155 44 273 3.0 10.0 0.00 0.00 0.00 1010.5
20260508110653 44 261 4.0 7.0 0.00 0.00 0.00 1010.5
20260508110151 43 262 3.0 7.0 0.00 0.00 0.00 1010.5
20260508105650 43 285 2.0 7.0 0.00 0.00 0.00 1010.2
20260508105148 43 292 1.0 9.0 0.00 0.00 0.00 1010.2
20260508104646 43 260 3.0 9.0 0.00 0.00 0.00 1010.2
20260508104143 43 253 4.0 7.0 0.00 0.00 0.00 1010.2
20260508103642 43 304 2.0 7.0 0.00 0.00 0.00 1010.2
20260508103107 43 253 1.0 10.0 0.00 0.00 0.00 1010.2
20260508102605 43 260 3.0 12.0 0.00 0.00 0.00 1010.2
20260508102101 43 296 5.0 12.0 0.00 0.00 0.00 1009.8
20260508101529 42 262 4.0 10.0 0.00 0.00 0.00 1010.2
20260508101029 42 253 2.0 7.0 0.00 0.00 0.00 1009.8
20260508100527 42 274 4.0 9.0 0.00 0.00 0.00 1009.8
20260508100026 42 263 2.0 9.0 0.00 0.00 0.00 1009.8
20260508095525 42 272 4.0 9.0 0.00 0.00 0.00 1009.8
20260508095023 42 270 3.0 9.0 0.00 0.00 0.00 1009.5
20260508094522 42 271 3.0 9.0 0.00 0.00 0.00 1009.5
20260508093950 42 288 3.0 7.0 0.00 0.00 0.00 1009.5
20260508093449 41 301 3.0 6.0 0.00 0.00 0.00 1009.5
20260508092948 41 257 2.0 6.0 0.00 0.00 0.00 1009.5
20260508092446 41 248 1.0 6.0 0.00 0.00 0.00 1009.5
20260508091944 41 244 1.0 3.0 0.00 0.00 0.00 1009.5
20260508091442 41 244 0.0 3.0 0.00 0.00 0.00 1009.5
20260508090941 40 244 0.0 3.0 0.00 0.00 0.00 1009.5
20260508090407 40 244 0.0 3.0 0.00 0.00 0.00 1009.5
20260508085904 40 244 0.0 0.0 0.00 0.00 0.00 1009.1
20260508085403 40 244 0.0 0.0 0.00 0.00 0.00 1009.1
20260508084901 41 244 0.0 2.0 0.00 0.00 0.00 1009.1
20260508084359 41 244 0.0 2.0 0.00 0.00 0.00 1009.1
20260508083858 41 253 0.0 0.0 0.00 0.00 0.00 1009.1
20260508083355 41 246 0.0 0.0 0.00 0.00 0.00 1009.1
20260508082854 41 246 0.0 0.0 0.00 0.00 0.00 1009.1
20260508082352 40 246 0.0 0.0 0.00 0.00 0.00 1009.1
20260508081849 40 246 0.0 0.0 0.00 0.00 0.00 1009.1
20260508081347 40 246 0.0 0.0 0.00 0.00 0.00 1009.1
20260508080846 40 246 0.0 0.0 0.00 0.00 0.00 1009.1
20260508080344 40 246 0.0 0.0 0.00 0.00 0.00 1009.1
20260508075843 40 246 0.0 0.0 0.00 0.00 0.00 1009.1
20260508075311 40 246 0.0 0.0 0.00 0.00 0.00 1009.1
20260508074809 40 246 0.0 0.0 0.00 0.00 0.00 1009.1
20260508074307 40 246 0.0 2.0 0.00 0.00 0.00 1009.1
20260508073805 40 253 0.0 2.0 0.00 0.00 0.00 1008.8
20260508073304 40 274 0.0 3.0 0.00 0.00 0.00 1008.8
20260508072730 40 274 0.0 3.0 0.00 0.00 0.00 1008.8
20260508072229 40 274 1.0 4.0 0.00 0.00 0.00 1009.1
20260508071727 40 274 1.0 4.0 0.00 0.00 0.00 1009.1
20260508071226 40 274 2.0 4.0 0.00 0.00 0.00 1009.1
20260508070725 40 274 0.0 4.0 0.00 0.00 0.00 1009.1
20260508070223 40 274 2.0 4.0 0.00 0.00 0.00 1009.1
20260508065651 39 274 3.0 4.0 0.00 0.00 0.00 1008.8
20260508065151 39 274 1.0 4.0 0.00 0.00 0.00 1008.8
20260508064649 39 278 1.0 3.0 0.00 0.00 0.00 1008.8
20260508064148 39 263 1.0 6.0 0.00 0.00 0.00 1008.8
20260508063645 39 290 0.0 6.0 0.00 0.00 0.00 1008.8
20260508063144 38 290 1.0 6.0 0.00 0.00 0.00 1008.8
20260508062643 38 290 2.0 6.0 0.00 0.00 0.00 1008.8
20260508062110 38 290 2.0 7.0 0.00 0.00 0.00 1009.1
20260508061609 37 291 3.0 7.0 0.00 0.00 0.00 1008.8
20260508061108 37 256 2.0 4.0 0.00 0.00 0.00 1009.1
20260508060535 36 256 0.0 0.0 0.00 0.00 0.00 1009.1
20260508060033 37 256 0.0 3.0 0.00 0.00 0.00 1009.1
20260508055532 37 256 0.0 3.0 0.00 0.00 0.00 1009.1
20260508055029 37 256 2.0 3.0 0.00 0.00 0.00 1009.1
20260508054528 37 256 1.0 3.0 0.00 0.00 0.00 1009.1
20260508054027 37 257 0.0 2.0 0.00 0.00 0.00 1009.1
20260508053526 37 264 0.0 2.0 0.00 0.00 0.00 1009.1
20260508053023 37 264 0.0 0.0 0.00 0.00 0.00 1009.1
20260508052522 37 264 0.0 0.0 0.00 0.00 0.00 1009.1
20260508051950 37 264 0.0 0.0 0.00 0.00 0.00 1009.1
20260508051448 38 264 0.0 3.0 0.00 0.00 0.00 1009.1
20260508050947 38 264 0.0 3.0 0.00 0.00 0.00 1009.1
20260508050445 38 264 0.0 3.0 0.00 0.00 0.00 1009.1
20260508045944 38 264 2.0 3.0 0.00 0.00 0.00 1009.1
20260508045443 38 264 0.0 0.0 0.00 0.00 0.00 1009.1
20260508044942 38 264 0.0 0.0 0.00 0.00 0.00 1009.1
20260508044440 38 264 0.0 0.0 0.00 0.00 0.00 1009.1
20260508043805 39 339 0.0 0.0 0.00 0.00 0.00 1009.1
20260508043303 39 333 0.0 0.0 0.00 0.00 0.00 1008.8
20260508042801 39 343 0.0 0.0 0.00 0.00 0.00 1008.8
20260508042259 40 343 0.0 0.0 0.00 0.00 0.00 1008.8
20260508041757 40 343 0.0 0.0 0.00 0.00 0.00 1009.1
20260508041255 40 343 0.0 0.0 0.00 0.00 0.00 1009.1
20260508040754 41 343 0.0 0.0 0.00 0.00 0.00 1009.1
20260508040253 41 343 0.0 0.0 0.00 0.00 0.00 1009.1
20260508035615 41 343 0.0 0.0 0.00 0.00 0.00 1009.1
20260508035113 42 343 0.0 0.0 0.00 0.00 0.00 1009.1
20260508034611 42 343 0.0 0.0 0.00 0.00 0.00 1009.1
20260508034039 42 343 0.0 0.0 0.00 0.00 0.00 1009.1
20260508033505 42 343 0.0 0.0 0.00 0.00 0.00 1009.1
20260508033004 42 343 0.0 0.0 0.00 0.00 0.00 1008.8
20260508032503 42 336 0.0 0.0 0.00 0.00 0.00 1009.1
20260508032001 42 284 0.0 0.0 0.00 0.00 0.00 1009.1
20260508031500 42 284 0.0 0.0 0.00 0.00 0.00 1009.1
20260508030959 42 284 0.0 0.0 0.00 0.00 0.00 1009.1
20260508030458 42 284 0.0 0.0 0.00 0.00 0.00 1009.1
20260508025957 43 284 0.0 0.0 0.00 0.00 0.00 1009.1
20260508025455 43 284 0.0 0.0 0.00 0.00 0.00 1009.1
20260508024922 43 284 0.0 0.0 0.00 0.00 0.00 1009.1
20260508024418 43 284 0.0 0.0 0.00 0.00 0.00 1009.1
20260508023917 43 284 0.0 0.0 0.00 0.00 0.00 1009.1
20260508023346 43 284 0.0 0.0 0.00 0.00 0.00 1009.1
20260508022845 43 284 0.0 0.0 0.00 0.00 0.00 1009.1
20260508022343 44 284 0.0 0.0 0.00 0.00 0.00 1009.1
20260508021842 44 284 0.0 0.0 0.00 0.00 0.00 1009.1
20260508021341 44 284 0.0 0.0 0.00 0.00 0.00 1009.1
20260508020840 45 284 0.0 0.0 0.00 0.00 0.00 1009.1
20260508020338 45 284 0.0 0.0 0.00 0.00 0.00 1009.1
20260508015837 46 284 0.0 0.0 0.00 0.00 0.00 1009.1
20260508015335 46 284 0.0 0.0 0.00 0.00 0.00 1009.1
20260508014834 47 284 0.0 0.0 0.00 0.00 0.00 1009.1
20260508014302 47 284 0.0 4.0 0.00 0.00 0.00 1008.8
20260508013730 48 284 0.0 4.0 0.00 0.00 0.00 1008.8
20260508013229 48 284 0.0 3.0 0.00 0.00 0.00 1008.8
20260508012727 48 284 1.0 3.0 0.00 0.00 0.00 1008.8
20260508012226 48 284 1.0 4.0 0.00 0.01 0.00 1008.8
20260508011652 49 284 0.0 4.0 0.00 0.01 0.00 1008.8
20260508011151 49 284 3.0 4.0 0.00 0.01 0.00 1008.8
20260508010650 49 284 1.0 6.0 0.00 0.02 0.00 1008.5
20260508010047 49 282 4.0 6.0 0.00 0.02 0.00 1008.5
20260508005545 49 273 2.0 6.0 0.00 0.02 0.00 1008.5
20260508005044 50 286 2.0 6.0 0.00 0.02 0.00 1008.5
20260508004543 50 286 2.0 6.0 0.00 0.02 0.00 1008.5
20260508004041 51 281 3.0 6.0 0.00 0.02 0.00 1008.1
20260508003539 51 275 0.0 7.0 0.00 0.03 0.00 1008.1
20260508003006 51 286 2.0 9.0 0.00 0.03 0.00 1008.1
20260508002504 52 263 1.0 12.0 0.00 0.03 0.00 1008.1
20260508002001 52 267 2.0 12.0 0.00 0.04 0.00 1008.1
20260508001459 52 261 4.0 12.0 0.00 0.04 0.00 1008.1
20260508000957 52 281 4.0 10.0 0.00 0.04 0.00 1007.8
20260508000457 53 280 2.0 10.0 0.00 0.04 0.00 1007.8
20260507235953 53 277 4.0 10.0 0.00 0.04 0.00 1007.8
20260507235452 53 252 1.0 13.0 0.00 0.04 0.00 1008.1
20260507234951 53 301 2.0 13.0 0.00 0.04 0.00 1007.8
20260507234450 54 272 4.0 13.0 0.00 0.04 0.00 1007.8
20260507233950 54 268 0.0 12.0 0.00 0.04 0.00 1007.5
20260507233448 54 270 5.0 12.0 0.00 0.05 0.00 1007.5
20260507232946 54 279 5.0 12.0 0.00 0.06 0.00 1007.5
20260507232444 55 271 4.0 18.0 0.00 0.06 0.00 1007.5
20260507231942 55 263 3.0 18.0 0.00 0.06 0.00 1007.5
20260507231441 55 269 6.0 18.0 0.00 0.07 0.00 1007.5
20260507230940 55 264 3.0 19.0 0.00 0.08 0.00 1007.5
20260507230438 56 269 8.0 19.0 0.00 0.09 0.00 1007.5
20260507225936 56 292 2.0 12.0 0.00 0.10 0.00 1007.5
20260507225403 56 263 3.0 12.0 0.00 0.11 0.00 1007.5
20260507224901 56 296 5.0 13.0 0.00 0.12 0.00 1007.5
20260507224358 56 249 2.0 15.0 0.00 0.12 0.00 1007.5
20260507223826 56 263 4.0 15.0 0.00 0.12 0.00 1007.5
20260507223222 56 292 3.0 13.0 0.00 0.12 0.00 1007.5
20260507222721 56 276 4.0 18.0 0.00 0.13 0.00 1007.5
20260507222219 56 312 5.0 19.0 0.00 0.13 0.00 1007.5
20260507221717 57 275 11.0 19.0 0.00 0.13 0.00 1007.8
20260507221216 56 292 6.0 13.0 0.00 0.13 0.00 1007.5
20260507220715 56 265 4.0 10.0 0.00 0.13 0.00 1007.8
20260507220213 57 287 5.0 10.0 0.00 0.13 0.00 1007.8
20260507215638 57 262 4.0 12.0 0.00 0.14 0.00 1007.8
20260507215136 58 285 4.0 12.0 0.00 0.14 0.00 1007.8
20260507214603 58 261 5.0 12.0 0.00 0.14 0.00 1007.8
20260507214102 58 271 2.0 19.0 0.00 0.14 0.00 1007.5
20260507213601 58 270 6.0 20.0 0.00 0.14 0.00 1007.5
20260507213029 58 280 8.0 20.0 0.00 0.14 0.00 1007.8
20260507212528 58 281 4.0 18.0 0.00 0.15 0.00 1007.8
20260507211953 58 279 7.0 18.0 0.00 0.16 0.00 1007.5
20260507211452 58 274 7.0 19.0 0.00 0.16 0.00 1007.8
20260507210951 59 290 9.0 19.0 0.00 0.17 0.00 1007.5
20260507210450 58 292 9.0 24.0 0.00 0.17 0.00 1007.5
20260507205948 58 278 5.0 24.0 0.00 0.17 0.00 1007.5
20260507205447 58 273 8.0 24.0 0.00 0.18 0.00 1007.5
20260507204946 58 255 6.0 16.0 0.00 0.18 0.00 1007.5
20260507204445 58 258 3.0 22.0 0.00 0.18 0.00 1007.5
20260507203945 58 288 7.0 22.0 0.00 0.18 0.00 1007.5
20260507203443 58 258 9.0 24.0 0.00 0.19 0.00 1007.5
20260507202808 58 286 10.0 24.0 0.00 0.19 0.00 1007.5
20260507202307 58 279 12.0 24.0 0.00 0.19 0.00 1007.5
20260507201804 57 286 6.0 24.0 0.00 0.19 0.00 1007.5
20260507201301 57 285 6.0 24.0 0.00 0.19 0.00 1007.5
20260507200758 58 275 8.0 24.0 0.00 0.20 0.00 1007.5
20260507200154 57 258 6.0 16.0 0.00 0.20 0.00 1007.5
20260507195652 57 271 4.0 15.0 0.00 0.20 0.00 1007.5
20260507195121 56 273 5.0 10.0 0.00 0.20 0.00 1007.8
20260507194516 56 256 3.0 9.0 0.00 0.20 0.00 1007.8
20260507194015 56 301 2.0 15.0 0.00 0.23 0.00 1007.8
20260507193513 56 270 3.0 20.0 0.00 0.26 0.00 1007.8
20260507193012 57 260 4.0 20.0 0.00 0.26 0.00 1007.8
20260507192438 57 288 5.0 12.0 0.00 0.27 0.00 1007.8
20260507191938 58 260 6.0 12.0 0.00 0.27 0.00 1008.1
20260507191436 57 346 3.0 12.0 0.00 0.27 0.00 1007.8
20260507190830 58 291 6.0 12.0 0.00 0.27 0.00 1008.1
20260507190327 58 278 3.0 12.0 0.00 0.27 0.00 1008.1
20260507185825 58 272 3.0 12.0 0.00 0.27 0.00 1008.1
20260507185324 58 252 6.0 13.0 0.00 0.27 0.00 1008.1
20260507184823 58 347 1.0 20.0 0.00 0.27 0.00 1008.1
20260507184321 58 264 6.0 20.0 0.00 0.28 0.00 1008.5
20260507183820 58 293 5.0 20.0 0.00 0.28 0.00 1008.5
20260507183318 58 248 6.0 20.0 0.00 0.28 0.00 1008.5
20260507182817 57 254 4.0 20.0 0.00 0.29 0.00 1008.5
20260507182316 57 264 10.0 20.0 0.00 0.32 0.00 1008.5
20260507181639 57 275 4.0 19.0 0.00 0.32 0.00 1008.5
20260507181137 57 272 8.0 19.0 0.00 0.33 0.00 1008.5
20260507180636 58 269 8.0 19.0 0.00 0.34 0.00 1008.5
20260507180134 57 331 4.0 18.0 0.00 0.35 0.00 1008.5
20260507175633 57 241 6.0 16.0 0.00 0.36 0.00 1008.8
20260507175131 57 266 9.0 16.0 0.00 0.36 0.00 1008.5
20260507174630 57 306 2.0 16.0 0.00 0.37 0.00 1008.8
20260507174126 57 247 7.0 16.0 0.00 0.38 0.00 1008.5
20260507173553 57 266 8.0 16.0 0.00 0.39 0.00 1008.5
20260507173021 56 288 3.0 16.0 0.00 0.40 0.00 1008.8
20260507172519 57 279 7.0 18.0 0.00 0.40 0.00 1008.8
20260507172017 57 258 6.0 19.0 0.00 0.41 0.00 1008.8
20260507171516 58 266 12.0 19.0 0.00 0.42 0.00 1008.8
20260507170943 57 224 6.0 18.0 0.00 0.43 0.00 1008.5
20260507170441 57 269 8.0 18.0 0.00 0.44 0.00 1008.8
20260507165940 57 293 5.0 20.0 0.00 0.45 0.00 1008.8
20260507165439 57 259 4.0 20.0 0.00 0.46 0.00 1009.1
20260507164938 58 247 8.0 20.0 0.00 0.48 0.00 1009.1
20260507164435 57 242 1.0 16.0 0.00 0.49 0.00 1009.1
20260507163903 57 293 8.0 20.0 0.00 0.51 0.00 1009.1
20260507163401 57 279 5.0 20.0 0.00 0.52 0.00 1009.1
20260507162900 57 264 8.0 20.0 0.00 0.54 0.00 1009.1
20260507162358 57 268 7.0 22.0 0.00 0.55 0.00 1009.1
20260507161857 57 271 4.0 22.0 0.00 0.56 0.00 1009.5
20260507161356 57 275 6.0 22.0 0.00 0.57 0.00 1009.5
20260507160853 57 250 8.0 18.0 0.00 0.58 0.00 1009.5
20260507160352 57 307 5.0 18.0 0.00 0.59 0.00 1009.5
20260507155850 56 304 5.0 13.0 0.00 0.60 0.00 1009.5
20260507155348 57 255 1.0 13.0 0.00 0.61 0.00 1009.5
20260507154847 57 269 7.0 16.0 0.00 0.62 0.00 1009.8
20260507154345 57 347 1.0 16.0 0.00 0.63 0.00 1009.8
20260507153842 57 321 5.0 16.0 0.00 0.64 0.00 1009.8
20260507153341 56 282 6.0 15.0 0.00 0.65 0.00 1009.8
20260507152839 56 358 4.0 19.0 0.00 0.67 0.00 1009.8
20260507152338 56 271 5.0 19.0 0.00 0.68 0.00 1009.8
20260507151837 56 266 8.0 19.0 0.00 0.69 0.00 1009.8
20260507151335 55 259 6.0 16.0 0.00 0.70 0.00 1009.8
20260507150832 55 265 2.0 16.0 0.00 0.72 0.00 1010.2
20260507150329 55 313 4.0 13.0 0.00 0.73 0.00 1009.8
20260507145828 55 318 2.0 12.0 0.00 0.74 0.00 1010.2
20260507145327 55 264 6.0 12.0 0.00 0.76 0.00 1010.2
20260507144825 55 277 4.0 13.0 0.00 0.78 0.00 1010.2
20260507144323 54 280 6.0 16.0 0.00 0.79 0.00 1010.2
20260507143821 54 326 3.0 16.0 0.00 0.80 0.00 1010.2
20260507143319 54 266 9.0 15.0 0.00 0.81 0.00 1010.2